STARLINK-32368

Last updated on Fri Oct 04 2024 00:02:04 GMT+0000 (Coordinated Universal Time)

1 61067U 24164T 24277.58334491 -.01348977 00000+0 -21207-1 0 9999 2 61067 53.1595 6.3023 0001325 67.3915 138.5635 15.55883774 4419
UTC large
Height (km)
Speed (km/s)
/
Latitude / Longitude
Inclination (degrees)
Orbital Period (minutes)
Azimuth
Elevation
Range (km)
Doppler Factor

Next 0 passes for location: London (51.5072 / 0.1276)

Sorry there are no passes over London.